This is the latest recevied weather packets stored in our database for station/object WW3TRG. If no packets are shown the sender has not sent any weather packets the latest 10 day(s).
| Time | Temp. | Humidity | Pressure | Rain* | Wind** | Luminosity | Snow |
|---|---|---|---|---|---|---|---|
| 1777229489 | 15.56° C | 63% | 1018.3 hPa | 0 mm | - | 499 W/m² | - |
| 1777229186 | 15.56° C | 62% | 1018.5 hPa | 0 mm | - | 230 W/m² | - |
| 1777228883 | 15.56° C | 61% | 1018.4 hPa | 0 mm | - | 232 W/m² | - |
| 1777228578 | 15.56° C | 64% | 1018.2 hPa | 0 mm | - | 339 W/m² | - |
| 1777228275 | 15.56° C | 64% | 1018.4 hPa | 0 mm | - | 664 W/m² | - |
| 1777227969 | 15.56° C | 65% | 1018.7 hPa | 0 mm | - | 273 W/m² | - |
| 1777227664 | 15° C | 63% | 1018.6 hPa | 0 mm | - | 317 W/m² | - |
| 1777227360 | 15.56° C | 62% | 1018.3 hPa | 0 mm | - | 243 W/m² | - |
| 1777227056 | 15° C | 66% | 1018.5 hPa | 0 mm | - | 281 W/m² | - |
| 1777226751 | 15° C | 64% | 1018.3 hPa | 0 mm | - | 431 W/m² | - |
| 1777226446 | 15° C | 63% | 1018.4 hPa | 0 mm | - | 520 W/m² | - |
| 1777226142 | 15° C | 63% | 1018.4 hPa | 0 mm | - | 510 W/m² | - |
| 1777225839 | 15° C | 66% | 1018.4 hPa | 0 mm | - | 634 W/m² | - |
| 1777225534 | 16.11° C | 69% | 1018.4 hPa | 0 mm | - | 598 W/m² | - |
| 1777225233 | 15° C | 63% | 1018.5 hPa | 0 mm | - | 681 W/m² | - |
| 1777224928 | 15° C | 64% | 1018.6 hPa | 0 mm | - | 631 W/m² | - |
| 1777224626 | 15° C | 65% | 1018.8 hPa | 0 mm | - | 755 W/m² | - |
| 1777224320 | 15° C | 66% | 1018.5 hPa | 0 mm | - | 383 W/m² | - |
| 1777224016 | 15° C | 68% | 1018.7 hPa | 0 mm | - | 365 W/m² | - |
| 1777223714 | 14.44° C | 68% | 1018.7 hPa | 0 mm | - | 340 W/m² | - |
| 1777223409 | 13.89° C | 69% | 1018.7 hPa | 0 mm | - | 376 W/m² | - |
| 1777223108 | 14.44° C | 66% | 1018.5 hPa | 0 mm | - | 586 W/m² | - |
| 1777222804 | 14.44° C | 68% | 1018.7 hPa | 0 mm | - | 669 W/m² | - |
| 1777222502 | 14.44° C | 68% | 1018.8 hPa | 0 mm | - | 680 W/m² | - |
| 1777222199 | 13.89° C | 69% | 1018.8 hPa | 0 mm | - | 641 W/m² | - |
* Rain latest hour (hover to see other rain measurements)
** Current wind speed in m/s (hover to see current wind gust speed)